Hourly Weather Gogovo

Today, 17 May, Monday

Time Temperature Precipitation Wind Pressure Humidity
00:00 +13°C° 0.1 mm 3 mps 741 mmHg 88%
01:00 +13°C° 0.1 mm 4 mps 741 mmHg 90%
02:00 +12°C° 0 mm 4 mps 741 mmHg 94%
03:00 +12°C° 0.3 mm 3 mps 741 mmHg 95%
04:00 +12°C° 0.3 mm 3 mps 741 mmHg 95%
05:00 +13°C° 0.3 mm 3 mps 741 mmHg 96%
06:00 +14°C° 0 mm 3 mps 741 mmHg 92%
07:00 +15°C° 0 mm 4 mps 741 mmHg 89%
08:00 +17°C° 0 mm 4 mps 741 mmHg 85%
09:00 +17°C° 0.8 mm 3 mps 741 mmHg 84%
10:00 +18°C° 0.8 mm 3 mps 741 mmHg 82%
11:00 +18°C° 0.8 mm 3 mps 741 mmHg 81%
12:00 +17°C° 0.6 mm 2 mps 740 mmHg 84%
13:00 +17°C° 0.6 mm 2 mps 740 mmHg 88%
14:00 +16°C° 0.6 mm 1 mps 740 mmHg 92%
15:00 +16°C° 2 mm 1 mps 740 mmHg 92%
16:00 +15°C° 2 mm 1 mps 739 mmHg 93%
17:00 +15°C° 2 mm 2 mps 739 mmHg 94%
18:00 +15°C° 0.8 mm 1 mps 739 mmHg 95%
19:00 +14°C° 0.8 mm 1 mps 739 mmHg 97%
20:00 +14°C° 0.8 mm 1 mps 739 mmHg 98%
21:00 +13°C° 0 mm 2 mps 739 mmHg 98%
22:00 +13°C° 0 mm 2 mps 739 mmHg 98%
23:00 +13°C° 0 mm 2 mps 738 mmHg 98%

Tomorrow, 18 May, Tuesday

Time Temperature Precipitation Wind Pressure Humidity
00:00 +12°C° 0 mm 2 mps 738 mmHg 98%
01:00 +12°C° 0 mm 2 mps 738 mmHg 98%
02:00 +12°C° 0 mm 2 mps 738 mmHg 98%
03:00 +12°C° 0 mm 2 mps 738 mmHg 98%
04:00 +12°C° 0 mm 2 mps 738 mmHg 98%
05:00 +12°C° 0 mm 2 mps 737 mmHg 99%
06:00 +13°C° 0.1 mm 2 mps 737 mmHg 98%
07:00 +14°C° 0.1 mm 2 mps 737 mmHg 96%
08:00 +13°C° 0.1 mm 3 mps 737 mmHg 95%
09:00 +14°C° 0.3 mm 3 mps 737 mmHg 95%
10:00 +15°C° 0.3 mm 2 mps 738 mmHg 95%
11:00 +15°C° 0.3 mm 2 mps 738 mmHg 95%
12:00 +15°C° 0.1 mm 2 mps 738 mmHg 95%
13:00 +15°C° 0.1 mm 2 mps 738 mmHg 95%
14:00 +15°C° 0.1 mm 2 mps 738 mmHg 95%
15:00 +15°C° 0.4 mm 2 mps 737 mmHg 96%
16:00 +15°C° 0.4 mm 2 mps 737 mmHg 97%
17:00 +14°C° 0.4 mm 2 mps 737 mmHg 98%
18:00 +14°C° 0.3 mm 2 mps 737 mmHg 98%
19:00 +14°C° 0.3 mm 2 mps 737 mmHg 98%
20:00 +14°C° 0.3 mm 2 mps 737 mmHg 98%
21:00 +14°C° 0.2 mm 2 mps 737 mmHg 99%
22:00 +14°C° 0.2 mm 2 mps 737 mmHg 99%
23:00 +13°C° 0.2 mm 2 mps 737 mmHg 99%

Day after tomorrow, 19 May, Wednesday

Time Temperature Precipitation Wind Pressure Humidity
00:00 +13°C° 0.2 mm 2 mps 737 mmHg 99%
01:00 +13°C° 0.2 mm 2 mps 737 mmHg 99%
02:00 +13°C° 0.2 mm 2 mps 737 mmHg 98%
03:00 +13°C° 0.1 mm 2 mps 737 mmHg 98%
04:00 +13°C° 0.1 mm 2 mps 738 mmHg 98%
05:00 +13°C° 0.1 mm 2 mps 738 mmHg 98%
06:00 +13°C° 0 mm 2 mps 738 mmHg 97%
07:00 +13°C° 0 mm 2 mps 738 mmHg 97%
08:00 +13°C° 0 mm 2 mps 739 mmHg 96%
09:00 +12°C° 0.4 mm 3 mps 739 mmHg 95%
10:00 +12°C° 0.4 mm 3 mps 739 mmHg 95%
11:00 +13°C° 0.4 mm 3 mps 739 mmHg 94%
12:00 +12°C° 2.2 mm 3 mps 739 mmHg 95%
13:00 +12°C° 2.2 mm 4 mps 740 mmHg 95%
14:00 +12°C° 2.2 mm 4 mps 740 mmHg 96%
15:00 +12°C° 0.7 mm 4 mps 740 mmHg 96%
16:00 +12°C° 0.7 mm 4 mps 740 mmHg 96%
17:00 +11°C° 0.7 mm 4 mps 741 mmHg 95%
18:00 +11°C° 0.2 mm 3 mps 741 mmHg 95%
19:00 +11°C° 0.2 mm 3 mps 741 mmHg 95%
20:00 +11°C° 0.2 mm 3 mps 742 mmHg 95%
21:00 +11°C° 0 mm 3 mps 742 mmHg 95%
22:00 +10°C° 0 mm 3 mps 742 mmHg 95%
23:00 +10°C° 0 mm 3 mps 741 mmHg 94%

20 May, Thursday

Time Temperature Precipitation Wind Pressure Humidity
00:00 +10°C° 0 mm 4 mps 741 mmHg 94%
01:00 +10°C° 0 mm 4 mps 741 mmHg 94%
02:00 +10°C° 0 mm 4 mps 741 mmHg 94%
03:00 +9°C° 1.1 mm 5 mps 741 mmHg 95%
04:00 +9°C° 1.1 mm 5 mps 741 mmHg 96%
05:00 +9°C° 1.1 mm 5 mps 740 mmHg 97%
06:00 +9°C° 2.9 mm 6 mps 740 mmHg 97%
07:00 +9°C° 2.9 mm 6 mps 739 mmHg 97%
08:00 +9°C° 2.9 mm 7 mps 739 mmHg 97%
09:00 +9°C° 4.1 mm 7 mps 739 mmHg 97%
10:00 +9°C° 4.1 mm 7 mps 738 mmHg 97%
11:00 +9°C° 4.1 mm 7 mps 738 mmHg 97%
12:00 +9°C° 5.7 mm 7 mps 738 mmHg 97%
13:00 +9°C° 5.7 mm 7 mps 738 mmHg 97%
14:00 +9°C° 5.7 mm 7 mps 738 mmHg 97%
15:00 +8°C° 3.3 mm 7 mps 737 mmHg 96%
16:00 +7°C° 3.3 mm 8 mps 737 mmHg 95%
17:00 +7°C° 3.3 mm 8 mps 737 mmHg 95%
18:00 +7°C° 2.6 mm 8 mps 736 mmHg 95%
19:00 +7°C° 2.6 mm 8 mps 736 mmHg 95%
20:00 +7°C° 2.6 mm 8 mps 736 mmHg 95%
21:00 +7°C° 3.9 mm 8 mps 735 mmHg 95%
22:00 +7°C° 3.9 mm 8 mps 735 mmHg 95%
23:00 +7°C° 3.9 mm 9 mps 735 mmHg 95%

21 May, Friday

Time Temperature Precipitation Wind Pressure Humidity
00:00 +6°C° 3.3 mm 9 mps 735 mmHg 94%
01:00 +5°C° 3.3 mm 10 mps 736 mmHg 94%
02:00 +4°C° 3.3 mm 11 mps 736 mmHg 93%
03:00 +5°C° 1.9 mm 10 mps 736 mmHg 93%
04:00 +3°C° 1.9 mm 10 mps 736 mmHg 93%
05:00 +3°C° 1.9 mm 9 mps 737 mmHg 93%
06:00 +5°C° 0.7 mm 9 mps 737 mmHg 92%
07:00 +5°C° 0.7 mm 9 mps 738 mmHg 90%
08:00 +6°C° 0.7 mm 8 mps 738 mmHg 89%
09:00 +7°C° 0 mm 8 mps 739 mmHg 85%
10:00 +9°C° 0 mm 8 mps 739 mmHg 81%
11:00 +10°C° 0 mm 9 mps 740 mmHg 78%
12:00 +10°C° 0.1 mm 8 mps 741 mmHg 73%
13:00 +11°C° 0.1 mm 8 mps 741 mmHg 69%
14:00 +12°C° 0.1 mm 8 mps 742 mmHg 65%
15:00 +11°C° 0 mm 7 mps 742 mmHg 66%
16:00 +10°C° 0 mm 7 mps 743 mmHg 68%
17:00 +10°C° 0 mm 7 mps 743 mmHg 69%
18:00 +9°C° 0 mm 6 mps 743 mmHg 71%
19:00 +8°C° 0 mm 5 mps 744 mmHg 73%
20:00 +7°C° 0 mm 4 mps 744 mmHg 75%
21:00 +6°C° 0 mm 4 mps 744 mmHg 80%
22:00 +4°C° 0 mm 4 mps 744 mmHg 84%
23:00 +3°C° 0 mm 3 mps 745 mmHg 88%

22 May, Saturday

Time Temperature Precipitation Wind Pressure Humidity
00:00 +4°C° 0 mm 3 mps 745 mmHg 88%
01:00 +4°C° 0 mm 4 mps 745 mmHg 88%
02:00 +4°C° 0 mm 4 mps 745 mmHg 87%
03:00 +4°C° 0 mm 4 mps 745 mmHg 85%
04:00 +5°C° 0 mm 4 mps 745 mmHg 83%
05:00 +5°C° 0 mm 4 mps 745 mmHg 81%
06:00 +6°C° 0 mm 4 mps 745 mmHg 77%
07:00 +7°C° 0 mm 4 mps 746 mmHg 72%
08:00 +8°C° 0 mm 5 mps 746 mmHg 68%
09:00 +11°C° 0 mm 4 mps 746 mmHg 64%
10:00 +12°C° 0 mm 4 mps 746 mmHg 59%
11:00 +13°C° 0 mm 4 mps 747 mmHg 55%
12:00 +14°C° 0 mm 4 mps 747 mmHg 53%
13:00 +14°C° 0 mm 4 mps 747 mmHg 52%
14:00 +15°C° 0 mm 4 mps 747 mmHg 51%
15:00 +14°C° 0.1 mm 4 mps 747 mmHg 59%
16:00 +13°C° 0.1 mm 4 mps 747 mmHg 67%
17:00 +12°C° 0.1 mm 5 mps 747 mmHg 75%
18:00 +11°C° 0 mm 4 mps 747 mmHg 79%
19:00 +10°C° 0 mm 3 mps 747 mmHg 82%
20:00 +9°C° 0 mm 2 mps 747 mmHg 86%
21:00 +9°C° 0 mm 2 mps 747 mmHg 87%
22:00 +8°C° 0 mm 2 mps 748 mmHg 89%
23:00 +8°C° 0 mm 3 mps 748 mmHg 90%
Show more